Location: Chihuahua
(28.6330°N, 106.0830°W)
Time: 20:30:30
(UTC-07:00)

Daily predictions for brighter satellites

Satellite Brightness Start Highest point End
(mag) Time Altitude Azimuth Time Altitude Azimuth Time Altitude Azimuth
Meteor 1-26 Rocket 4.4 19:10:48 10° N 19:16:43 86° E 19:22:37 10° S
CENTAUR R/B 3.3 19:10:08 10° NNW 19:18:08 63° ENE 19:26:21 10° SE
Helios 1A 3.6 19:15:21 10° S 19:19:27 60° WSW 19:23:33 10° NNW
Cosmos 1340 Rocket 3.4 19:18:24 10° SSW 19:22:20 62° W 19:26:19 10° N
H-2A R/B 3.5 19:22:08 10° SE 19:25:26 32° ENE 19:28:46 10° N
Resurs 1-3 3.8 19:22:33 10° S 19:26:56 78° WSW 19:31:19 10° NNW
Cosmos 1408 4.3 19:31:56 10° SE 19:34:04 15° E 19:36:12 10° NE
ATLAS 5 CENTAUR R/B 2.6 19:28:20 10° NNW 19:34:30 65° ENE 19:40:58 10° SE
PSLV R/B 3.9 19:31:26 10° NW 19:34:44 47° NNE 19:37:47 12° ESE
Okean 1-7 3.9 19:32:19 10° NNW 19:36:32 54° W 19:40:46 10° S
Cosmos 1782 3.8 19:34:56 10° NNE 19:38:28 29° E 19:41:48 11° SE
Cosmos 2184 Rocket 3.9 19:32:49 10° S 19:38:58 79° E 19:45:09 10° N
IUS-26 SRM-1 2.2 19:38:06 10° WSW 19:40:15 38° S 19:41:33 16° ESE
Centaur AC-119 1.4 19:36:50 10° W 19:40:29 58° S 19:41:52 17° ESE
Cosmos 1356 Rocket 4.3 19:38:40 10° SSW 19:42:48 54° W 19:47:00 10° N
CZ-4 DEB 4.0 19:42:29 15° ESE 19:44:23 25° ENE 19:47:02 10° NNE
Cosmos 1825 3.1 19:48:39 13° SE 19:51:18 27° E 19:54:34 10° NNE
Atlas Centaur 2 0.9 19:48:53 10° WNW 19:52:40 83° N 19:55:08 19° E
Cosmos 1939 Rocket 4.3 19:51:52 16° E 19:53:17 19° ENE 19:56:07 10° NNE
Cosmos 1844 Rocket 3.8 19:51:37 10° SW 19:57:03 48° WNW 20:02:30 10° N
Meteor 2-6 Rocket 4.4 19:51:53 10° N 19:57:40 56° E 20:02:56 12° SSE
Meteor 2-10 Rocket 3.8 19:53:28 10° N 19:59:13 79° W 20:04:44 10° S
Cosmos 2278 Rocket 2.1 19:53:43 10° SSW 19:59:22 77° ESE 20:05:02 10° NNE
SL-27 R/B 2.4 19:56:49 10° NNW 20:00:26 80° ENE 20:02:59 18° SSE
FENGYUN 3A 3.8 19:55:32 10° S 20:00:56 77° WSW 20:06:20 10° NNW
BREEZE-M DEB (TANK) 3.5 20:00:21 10° NNW 20:02:25 29° NE 20:04:01 20° E
ALOS 2.7 19:58:35 10° S 20:03:11 63° W 20:07:50 10° NNW
Cosmos 1674 Rocket 3.5 19:59:21 10° N 20:03:46 67° E 20:07:24 15° SSE
COSMOS 2406 3.4 19:58:56 10° NNW 20:04:39 77° WSW 20:10:14 10° SSE
Cosmos 1844 4.5 19:59:57 10° SSW 20:05:34 57° WNW 20:11:16 10° N
Okean 2 Rocket 3.9 20:04:53 23° SE 20:06:29 29° E 20:10:18 10° NNE
ERBS 3.6 20:03:19 10° NW 20:06:31 36° WSW 20:08:52 16° S
USA 186 2.3 20:03:39 10° S 20:06:39 55° W 20:09:51 10° NNW
USA 215 4.4 20:02:36 10° S 20:08:33 37° SW 20:14:33 10° WNW
SJ-11-01 4.5 20:07:21 20° SE 20:10:24 53° ENE 20:15:01 10° N
Cosmos 1782 Rocket 3.8 20:11:18 20° SSE 20:14:02 46° E 20:18:19 10° NNE
Envisat 3.6 20:12:11 25° ESE 20:14:24 37° ENE 20:19:03 10° N
Resurs 01 Rocket 4.5 20:12:58 10° SW 20:15:16 14° W 20:17:34 10° WNW
SEDSat Delta rocket 2.9 20:12:01 10° WSW 20:16:36 87° NNW 20:19:11 23° ENE
Sich 1 Rocket 4.2 20:15:22 10° SSW 20:19:51 58° W 20:24:23 10° N
OAO 3 Rocket 3.7 20:16:29 10° W 20:21:24 62° NNW 20:25:52 12° ENE
Cosmos 2082 Rocket 3.9 20:22:29 10° NNE 20:25:49 16° ENE 20:26:48 15° ENE
ERS-1 Rocket 2.9 20:22:57 24° SSE 20:25:59 78° ENE 20:31:01 10° N
Cosmos 1420 Rocket 3.9 20:21:01 10° SSW 20:26:16 83° ESE 20:31:30 10° NNE
APEX 3.1 20:23:55 10° SSW 20:27:22 89° ESE 20:31:54 10° NNE
COSMOS 2487 3.2 20:25:31 10° N 20:28:46 37° ENE 20:28:46 37° ENE
Orbus 7S 3.7 20:24:48 10° W 20:30:05 52° SSW 20:30:22 50° S
Nadezhda 3 Rocket 4.0 20:26:19 10° N 20:32:41 73° E 20:36:33 25° SSE
Cosmos 1975 Rocket 3.4 20:31:25 10° N 20:35:32 42° E 20:35:39 42° E
Cosmos 2297 3.6 20:31:15 10° SSW 20:36:55 80° ESE 20:42:39 10° NNE
Cosmos 407 Rocket 3.9 20:34:02 10° NNW 20:39:15 60° WSW 20:42:27 23° S
Cosmos 1140 Rocket 3.9 20:34:30 10° N 20:39:23 43° ENE 20:40:08 40° E
Intercosmos 25 3.7 20:42:36 44° NE 20:42:36 44° NE 20:45:00 10° NNE
Cosmos 1378 Rocket 3.5 20:40:26 10° N 20:44:46 83° W 20:45:51 50° S
Cosmos 1606 3.3 20:42:13 10° NNW 20:46:03 55° W 20:47:16 37° SSW
MetOp-B 4.5 20:45:55 42° E 20:46:38 45° ENE 20:51:42 10° N
Cosmos 1184 Rocket 4.1 20:46:21 25° SW 20:47:45 39° W 20:50:54 10° N
CZ-4B R/B 3.9 20:45:30 10° NNE 20:49:14 39° ENE 20:49:14 39° ENE
H-2A R/B 4.1 20:51:51 14° ENE 20:51:51 14° ENE 20:53:43 10° NE
SPOT 5 3.0 20:53:17 56° SE 20:54:14 68° ENE 20:59:33 10° N
Cosmos 2341 Rocket 4.4 20:48:39 10° SSW 20:54:52 62° W 21:01:05 10° N
Cosmos 1238 Rocket 3.0 20:52:19 10° NNW 20:55:59 68° W 20:56:23 63° SW
Meteosat 1 Rocket2 4.1 20:53:32 10° W 20:59:12 75° S 21:01:41 46° ESE
SL-8 Rocket 3.9 20:58:34 36° S 21:01:19 84° E 21:07:34 10° N
YAOGAN 6 4.3 21:07:53 26° N 21:07:53 26° N 21:09:36 10° N
SPOT 1/Viking Rocket 4.0 21:06:51 45° ENE 21:06:51 45° ENE 21:11:25 10° N
Lacrosse 5 4.1 21:10:52 13° NE 21:10:52 13° NE 21:11:28 10° NE
Cosmos 1242 Rocket 3.7 21:03:09 10° N 21:05:37 40° N 21:05:37 40° N
H-2A R/B 2.5 21:06:49 52° WSW 21:07:11 54° WSW 21:11:21 10° NNW
ARGOS 3.7 21:09:19 42° ENE 21:09:19 42° ENE 21:13:52 10° N
Mugunghwa Rocket 4.4 21:03:54 10° WSW 21:12:16 69° S 21:14:11 53° ESE
Cosmos 2151 Rocket 4.2 21:14:02 50° NNE 21:14:02 50° NNE 21:17:25 10° N
Timation 2 Rocket 3.7 21:12:45 10° NNW 21:18:45 83° ENE 21:19:07 78° SE
Cosmos 1850 Rocket 4.0 21:20:09 10° NNW 21:25:08 78° NNW 21:25:08 78° NNW
Centaur AC-125 3.7 21:06:28 10° WSW 21:26:51 66° S 21:27:04 65° SSE
BREEZE-M DEB (TANK) 4.0 21:21:38 10° NW 21:28:16 33° NNE 21:28:16 33° NNE
Cosmos 864 Rocket 4.3 21:30:23 76° SSW 21:30:52 83° W 21:37:03 10° N
MetOp-A 4.5 21:33:34 57° WSW 21:33:40 57° W 21:38:55 10° NNW
USA 229 DEB 4.0 21:30:33 10° NNW 21:37:32 54° ENE 21:37:41 54° ENE
USA 229 4.0 21:30:40 10° NNW 21:37:38 54° ENE 21:37:47 54° ENE
Cosmos 2366 rocket 4.3 21:41:55 53° SW 21:42:59 61° W 21:49:15 10° N
Cosmos 1833 Rocket 3.3 21:38:43 10° NNW 21:42:58 49° NNE 21:42:58 49° NNE
Cosmos 2082 Rocket 3.2 22:04:40 10° NNW 22:08:39 42° WNW 22:08:39 42° WNW
Terra 3.9 22:19:00 23° NNW 22:19:00 23° NNW 22:20:48 10° NNW
H-2A R/B 3.8 22:32:29 30° NW 22:32:29 30° NW 22:35:14 10° NNW
USA 234 3.8 22:25:23 10° NNE 22:31:10 54° NNW 22:31:10 54° NNW
Cosmos 2369 Rocket 4.2 22:53:08 23° N 22:53:08 23° N 22:55:13 10° N
Lacrosse 5 4.4 22:49:52 18° NW 22:49:52 18° NW 22:53:08 10° N
